Location: Chotý?any
(49.0666°N, 14.5203°E)
Time: 13:44:47
(UTC+00:00)

Daily predictions for brighter satellites

Satellite Brightness Start Highest point End
(mag) Time Altitude Azimuth Time Altitude Azimuth Time Altitude Azimuth
Cosmos 2082 Rocket 3.7 19:47:07 10° SE 19:50:50 18° E 19:54:32 10° ENE
USA 276 2.1 19:50:28 10° W 19:53:30 77° N 19:56:33 10° E
H-2A R/B 2.6 19:49:57 10° N 19:54:21 66° WNW 19:58:48 10° SSW
Cosmos 1455 2.8 19:53:40 10° NNW 19:57:27 58° W 20:01:11 10° S
USA 245 3.2 19:53:41 10° SSE 19:57:45 70° ENE 20:01:01 10° N
Cosmos 1536 Rocket 3.6 19:53:49 10° S 19:58:05 62° E 20:02:24 10° NNE
CARTOSAT-1 3.7 19:57:53 10° SSE 20:02:13 82° W 20:06:33 10° NNW
Cosmos 1606 Rocket 4.4 19:58:15 10° N 20:02:15 35° ENE 20:06:15 10° SE
ARIANE 5 R/B 3.8 19:58:35 10° SE 20:02:26 30° ENE 20:06:16 10° N
Cosmos 1741 Rocket 4.1 19:58:55 10° NNW 20:04:17 89° WSW 20:09:37 10° SSE
ATLAS 5 CENTAUR R/B 4.4 19:53:22 10° NW 20:05:24 38° WSW 20:09:31 10° S
SPOT 3 Rocket 3.7 20:06:29 10° SSE 20:11:41 80° WSW 20:16:57 10° NNW
Cosmos 2074 Rocket 4.0 20:06:16 10° N 20:12:35 86° E 20:18:49 10° S
Ariane Rocket 3.8 20:08:24 10° S 20:13:21 51° W 20:18:21 10° NNW
Cosmos 1656 4.5 20:17:07 10° NW 20:22:19 45° WSW 20:27:33 10° S
Cosmos 1726 Rocket 4.0 20:20:53 10° N 20:25:04 46° ENE 20:28:35 14° SSE
Nadezhda 1 Rocket 4.0 20:19:45 10° S 20:25:42 62° E 20:31:42 10° NNE
USA 234 4.1 20:21:54 10° E 20:28:10 50° NNE 20:34:26 10° WNW
ATLAS 2AS CENTAUR R/B 4.2 20:23:02 10° NW 20:28:48 28° WSW 20:34:18 10° SSW
Cosmos 1892 4.3 20:27:17 13° SE 20:29:20 19° E 20:32:04 10° NE
Meteor 2-1 Rocket 4.2 20:24:41 10° N 20:30:12 74° ENE 20:35:18 12° SSE
SL-16 R/B 3.9 20:29:04 10° NNW 20:33:39 24° NE 20:38:13 10° E
Cosmos 1980 Rocket 2.4 20:28:37 10° NNW 20:34:18 64° ENE 20:39:07 14° SE
Cosmos 1697 Rocket 2.8 20:28:57 10° NNW 20:34:34 73° WSW 20:39:32 13° SSE
Cosmos 2344 4.3 20:28:19 10° NW 20:37:06 88° NE 20:48:13 13° SE
Cosmos 2369 3.8 20:32:01 10° NNW 20:37:47 74° ENE 20:42:35 15° SE
SL-8 R/B 4.4 20:33:30 10° W 20:37:58 38° SSW 20:41:22 16° SSE
Cosmos 1331 Rocket 4.0 20:33:34 10° SSW 20:38:53 83° ESE 20:44:13 10° NNE
Spot 2 Rocket 3.8 20:38:47 10° S 20:43:48 64° WSW 20:48:54 10° NNW
Cosmos 2154 Rocket 4.1 20:37:57 10° NNW 20:44:11 79° W 20:50:11 11° S
COSMOS 2406 3.3 20:38:35 10° S 20:44:15 61° ESE 20:49:55 10° NE
X-37B 1.7 20:44:01 10° WSW 20:46:19 22° SSW 20:47:01 20° S
CZ-2C R/B 3.6 20:42:47 10° NNE 20:47:22 77° ESE 20:51:50 10° S
ATLAS 5 CENTAUR R/B 2.7 20:48:00 17° SE 20:48:37 17° ESE 20:51:18 10° ENE
SPOT 5 3.4 20:49:45 11° S 20:53:51 47° W 20:58:02 10° NNW
Cosmos 2084 Rocket 3.6 20:53:40 10° NW 20:57:30 55° SW 21:00:03 20° SSE
RESURS DK-1 4.2 20:54:38 10° NW 20:57:56 23° WSW 21:01:13 10° SSW
Cosmos 1833 Rocket 3.1 20:54:51 10° SW 21:00:26 67° WNW 21:06:04 10° NNE
Terra 2.1 20:56:28 14° S 21:00:29 63° WSW 21:05:14 10° NNW
CZ-4B R/B 4.3 20:59:50 10° NW 21:00:55 12° WNW 21:01:58 10° W
ASTEX 1 3.7 20:58:05 10° NNE 21:02:59 51° E 21:06:20 19° SSE
SL-8 Rocket 4.2 20:57:38 10° N 21:03:51 62° ENE 21:08:23 19° SSE
Helios 1A Rocket 4.1 21:01:06 11° SSW 21:04:41 37° W 21:08:32 10° NNW
ERS-1 Rocket 3.8 21:02:33 11° S 21:07:06 46° W 21:11:58 10° NNW
FALCON 9 DEB 3.2 21:04:05 10° WNW 21:07:21 71° NNE 21:09:45 17° ESE
Cosmos 1892 Rocket 3.5 21:04:14 16° S 21:07:45 80° E 21:12:08 10° NNE
Cosmos 1302 Rocket 3.9 21:04:07 10° SSW 21:09:18 76° ESE 21:14:30 10° NNE
Cosmos 2322 Rocket 3.6 21:04:26 10° NNW 21:09:25 30° NE 21:14:23 10° ESE
Cosmos 2058 Rocket 3.0 21:08:02 10° N 21:12:28 82° ENE 21:15:19 22° SSE
Cosmos 1825 3.0 21:15:03 25° SE 21:16:33 35° E 21:20:00 10° NNE
Cosmos 1408 2.3 21:16:15 24° S 21:18:12 82° E 21:21:41 10° NNE
Cosmos 1626 Rocket 4.3 21:17:38 23° SE 21:19:42 37° E 21:23:43 10° NNE
Meteor 1-11 4.2 21:15:39 15° S 21:20:20 81° E 21:25:56 10° NNE
Cosmos 2278 3.7 21:14:46 10° NNW 21:20:32 83° ENE 21:24:23 22° SSE
Cosmos 2366 rocket 4.1 21:16:35 10° N 21:22:56 72° E 21:27:20 21° SSE
Cosmos 968 Rocket 3.8 21:18:00 10° NNW 21:23:08 60° WSW 21:26:36 21° S
Cosmos 2333 Rocket 4.3 21:19:47 10° N 21:23:59 20° NE 21:28:11 10° E
Cosmos 2218 Rocket 4.1 21:19:58 10° N 21:26:26 76° E 21:30:50 22° SSE
USA 276 1.9 21:26:18 10° WNW 21:29:20 88° N 21:31:01 24° E
SJ 16-02 2.7 21:28:36 10° N 21:32:33 30° ENE 21:35:23 16° ESE
Cosmos 1867 3.9 21:27:58 10° NW 21:33:19 56° WSW 21:36:30 24° S
Cosmos 2082 Rocket 2.3 21:28:28 10° SSW 21:34:11 83° WNW 21:39:56 10° NNE
BREEZE-M DEB (TANK) 4.3 21:19:43 10° SW 21:34:13 59° SSE 21:38:20 10° E
USA 267 3.4 21:29:14 10° ENE 21:35:35 50° SE 21:41:54 10° SSW
ARIANE 5 R/B 3.8 21:35:43 16° SSW 21:38:48 34° W 21:42:53 10° NNW
GP-B 3.2 21:36:24 10° N 21:40:51 72° W 21:43:34 23° SSW
Cosmos 1959 Rocket 4.4 21:35:42 10° N 21:41:50 89° W 21:45:49 23° S
Cosmos 2341 Rocket 4.3 21:36:14 10° NNW 21:42:28 63° W 21:47:01 19° S
SAR-Lupe-4 3.7 21:41:14 10° N 21:44:49 73° WNW 21:46:46 25° SSW
Cosmos 2360 Rocket 3.4 21:40:17 10° NNW 21:45:29 35° NE 21:50:16 12° ESE
Spot 4 3.9 21:48:33 27° SSE 21:51:06 69° ENE 21:55:53 10° N
Cosmos 1606 3.9 21:48:20 10° N 21:51:52 33° ENE 21:53:24 24° ESE
Okean 1-7 Rocket 3.7 21:58:40 25° SSW 22:01:14 73° W 22:05:45 10° N
Cosmos 1892 4.0 22:02:06 16° SW 22:04:38 35° WNW 22:08:09 10° N
Cosmos 1758 Rocket 3.6 22:08:36 34° SSE 22:10:19 63° E 22:14:41 10° NNE
USA 234 3.3 22:04:42 12° ESE 22:10:53 88° NNE 22:17:29 10° NW
Cosmos 2181 Rocket 4.3 22:07:21 17° SSW 22:12:05 63° WNW 22:18:18 10° N
Cosmos 1633 2.3 22:12:09 46° S 22:13:06 83° E 22:16:35 10° N
Cosmos 1980 Rocket 3.7 22:13:22 10° NW 22:17:50 24° WSW 22:20:52 16° SW
Cosmos 1821 Rocket 3.9 22:11:38 10° N 22:17:55 88° E 22:21:23 28° S
SL-16 R/B 2.2 22:12:43 10° NNW 22:18:25 79° WSW 22:21:23 29° SSE
Cosmos 1992 Rocket 4.3 22:15:18 16° SW 22:19:27 64° WNW 22:24:41 10° NNE
Cosmos 1812 Rocket 3.6 22:15:50 10° NNW 22:20:18 71° W 22:22:08 34° S
SL-4 R/B 3.2 22:23:23 22° ESE 22:23:23 22° ESE 22:25:09 10° E
Cosmos 2219 Rocket 3.7 22:17:31 10° NNW 22:22:33 31° NE 22:27:35 10° ESE
Cosmos-2242 3.0 22:25:24 10° NNW 22:29:39 70° W 22:31:12 37° S
ATLAS 5 CENTAUR R/B 1.9 22:29:22 14° WSW 22:32:33 57° NW 22:36:49 10° NE
Cosmos 1602 Rocket 3.9 22:32:11 28° SW 22:34:15 57° WNW 22:38:32 10° N
ERS-2 2.7 22:33:40 10° NNE 22:37:06 41° E 22:37:40 37° SE
Cosmos 1238 4.2 22:38:02 61° S 22:38:32 87° E 22:42:01 10° N
Nadezhda 3 Rocket 3.9 22:36:22 28° S 22:39:50 90° SSW 22:46:03 10° N
ALOS 2 2.8 22:39:48 36° SSW 22:41:26 62° WSW 22:45:49 10° NNW
Cosmos 1354 Rocket 4.4 22:41:45 10° NNW 22:46:54 52° WSW 22:49:06 31° SSW
BREEZE-M DEB (TANK) 4.1 22:46:03 10° W 22:49:47 75° SSW 23:06:00 10° ESE
ADEOS Rocket 3.6 22:45:43 27° S 22:50:07 69° WSW 22:57:54 10° NNW
Cosmos 972 Rocket 4.2 22:46:28 10° NNW 22:51:39 76° ENE 22:54:40 28° SSE
Cosmos 1825 4.3 22:49:40 12° WSW 22:52:01 20° WNW 22:54:50 10° NNW
Cosmos 2322 Rocket 2.4 22:48:15 10° NW 22:53:51 60° WSW 22:56:24 32° S
ISS -1.4 23:01:42 14° E 23:01:42 14° E 23:02:27 10° E
Cosmos 1953 Rocket 3.5 22:58:43 39° S 23:00:18 77° E 23:04:44 10° NNE
SL-27 R/B 3.8 23:00:48 24° ESE 23:00:49 24° ESE 23:03:33 10° NE
PSLV R/B 4.0 22:56:31 10° NNE 23:01:14 59° E 23:03:01 35° SSE
Cosmos 1777 Rocket 4.3 22:59:34 10° NNW 23:04:44 56° WSW 23:06:53 33° SSW
USA 276 4.4 23:02:13 10° W 23:02:50 14° W 23:02:50 14° W
Cosmos 2333 Rocket 2.3 23:03:26 10° NNW 23:09:14 79° ENE 23:12:52 24° SE
Cosmos 1825 Rocket 3.9 23:08:17 32° SW 23:10:02 56° WNW 23:14:20 10° N
SJ 16-02 2.3 23:07:07 10° NW 23:11:08 34° WSW 23:12:19 29° SW
CENTAUR R/B 3.8 23:09:34 19° SE 23:11:41 23° ESE 23:16:44 10° ENE
Gbstr 26 Del rocket 3.2 23:11:09 35° SSW 23:12:50 58° SSE 23:18:01 10° ENE
COSMOS 2487 3.3 23:13:59 29° ESE 23:13:59 29° ESE 23:16:39 10° NE
Cosmos 1340 Rocket 2.8 23:13:04 42° SSW 23:14:16 74° WNW 23:18:15 10° N
Cosmos 1898 Rocket 4.5 23:11:20 10° NNW 23:16:17 42° ENE 23:20:27 14° SE
Cosmos 2151 4.2 23:14:58 24° SE 23:16:33 32° E 23:20:23 10° NNE
USA 267 3.6 23:12:16 10° NE 23:18:47 69° NNW 23:25:16 10° WSW
Meteor 2-3 Rocket 4.1 23:20:57 29° SSE 23:23:40 54° E 23:29:06 10° NNE
Cosmos 1812 3.9 23:21:28 10° N 23:25:02 36° ENE 23:26:44 24° ESE
Cosmos 2221 2.5 23:22:25 10° NNW 23:26:47 71° W 23:28:17 39° S
Cosmos 1606 4.4 23:24:16 10° NW 23:27:16 22° W 23:28:16 20° WSW
Cosmos 2058 3.9 23:26:08 26° WSW 23:27:55 39° WNW 23:31:52 10° N
Cosmos 1842 Rocket 3.5 23:24:58 10° N 23:29:30 88° W 23:31:14 37° S
Cosmos 2360 Rocket 2.6 23:24:13 10° NW 23:29:40 49° WSW 23:32:00 31° SSW
Cosmos 1934 Rocket 4.3 23:24:04 10° NNW 23:29:58 54° W 23:33:06 28° SSW
Nimbus 7 Rocket 4.4 23:27:16 10° NNE 23:33:14 81° WNW 23:36:36 28° SSW
Cosmos 2333 4.2 23:28:32 10° NNW 23:34:18 70° WSW 23:37:21 29° S
Resurs 1-4 Rocket 4.0 23:30:49 10° NE 23:34:42 20° E 23:38:01 12° SE
Cosmos 1782 3.0 23:31:44 10° N 23:35:41 62° ENE 23:37:13 34° SSE
SL-19 R/B 4.4 23:37:33 35° SSE 23:39:10 78° ENE 23:43:36 10° NNW
Cosmos 1833 4.2 23:39:57 26° SW 23:43:11 76° WNW 23:48:48 10° NNE
CZ-2D R/B 3.8 23:39:22 10° NE 23:43:24 22° E 23:46:40 13° SE
Cosmos 44 3.1 23:41:21 30° SW 23:43:35 83° NW 23:48:04 10° NE
COSMOS 2455 4.1 23:38:13 10° NNW 23:43:54 40° NE 23:49:33 10° ESE
EP 2 4.4 23:52:19 64° S 23:52:36 71° SE 23:55:36 10° NE
Cosmos 1459 Rocket 4.4 23:47:59 10° N 23:53:57 57° ENE 23:58:33 17° SSE
Cosmos 2237 Rocket 3.5 23:49:08 10° NNW 23:54:28 40° NE 23:59:45 10° ESE
